Tracking 26492 objects as of 8-Dec-2022
HD Live streaming from Space Station
objects crossing your sky now

COSMOS 1806

Track COSMOS 1806 now!
COSMOS 1806 is classified as:


NORAD ID: 17213
Int'l Code: 1986-098A
Perigee: 7,521.0 km
Apogee: 32,894.3 km
Inclination: 68.6 °
Period: 718.7 minutes
Semi major axis: 26578 km
RCS: 14.9345 m2 (large)
Launch date: December 12, 1986
Source: Commonwealth of Independent States (former USSR) (CIS)
Launch site: PLESETSK MISSILE AND SPACE COMPLEX (PKMTR)
aabbcc
Your satellite tracking list
Your tracking list is empty




NASA's NSSDC Master Catalog

Two Line Element Set (TLE):
1 17213U 86098A   22341.23791713  .00000164  00000-0  00000-0 0  9991
2 17213  68.6075 196.3608 4773243 112.5970  24.2075  2.00356205263471
Source of the keplerian elements: AFSPC